Regional Weather Roundup
Issued by NWS

Home | Current Version | Previous Version | Graphics & Text | Print | Product List | Glossary On
Versions: 1 2 3 4 5 6 7 8 9 10 11 12 13 14 15 16 17 18 19 20 21 22 23 24 25 26 27 28 29 30 31 32 33 34 35 36 37 38 39 40 41 42 43 44 45 46 47 48 49 50
000
ASUS43 KOAX 270410
RWRNE

WEATHER ROUNDUP FOR NEBRASKA
NATIONAL WEATHER SERVICE OMAHA NE
1100 PM CDT THU MAR 26 2015

NOTES: SATELLITE DATA IS BEING USED TO AUGMENT CLOUD COVER ABOVE
       12000 FEET.
       "FAIR" INDICATES FEW OR NO CLOUDS BELOW 12,000 FEET WITH NO
       SIGNIFICANT WEATHER AND/OR OBSTRUCTIONS TO VISIBILITY.

  * THESE STATIONS DO NOT REPORT WEATHER SUCH AS RAIN...SNOW OR FOG.

NEZ001>004-019>022-054>056-270500-
NEBRASKA PANHANDLE

CITY           SKY/WX    TMP DP  RH WIND       PRES   REMARKS
SCOTTSBLUFF    CLOUDY    44  34  67 SW5       30.15S
ALLIANCE       CLOUDY    38  28  67 E8        30.15R WCI  32
CHADRON        CLOUDY    40  30  67 CALM      30.15R
KIMBALL        CLOUDY    40  32  71 CALM      30.14F
SIDNEY         CLOUDY    43  33  68 CALM      30.16R
$$

NEZ057>060-069>072-079>082-270500-
SOUTHWEST NEBRASKA

CITY           SKY/WX    TMP DP  RH WIND       PRES   REMARKS
NORTH PLATTE   CLOUDY    36  28  73 NE10      30.19S WCI  28
IMPERIAL         N/A     41  27  57 NE10      30.17R
LEXINGTON      CLOUDY    34  28  78 NE12      30.21R WCI  26
MCCOOK         MOCLDY    38  29  70 NE16      30.17R WCI  29
OGALLALA       CLOUDY    40  29  62 NE10      30.17R WCI  34
$$

NEZ005>010-023>029-035>040-094-270500-
NORTH CENTRAL NEBRASKA

CITY           SKY/WX    TMP DP  RH WIND       PRES   REMARKS
VALENTINE      CLOUDY    33  26  75 NE6       30.23R WCI  28
AINSWORTH      CLOUDY    33  28  83 NE7       30.22S WCI  26
BROKEN BOW     CLOUDY    33  27  78 N3        30.21R
O`NEILL        CLOUDY    32  32  98 NW5       30.24R WCI  28
ORD            CLOUDY    34  26  72 NE12      30.22R WCI  25
THEDFORD       MOCLDY    31  28  89 NE3       30.21R
$$

NEZ041-046>049-061>064-073>077-083>087-270500-
SOUTH CENTRAL NEBRASKA

CITY           SKY/WX    TMP DP  RH WIND       PRES   REMARKS
GRAND ISLAND   CLOUDY    33  28  81 NE12      30.23R WCI  24
AURORA         PTCLDY    32  30  94 N9        30.22R WCI  24
HASTINGS       CLOUDY    34  29  82 NE18      30.20S WCI  23
HEBRON         CLOUDY    35  32  88 NE8G17    30.20R WCI  28
HOLDREGE       CLOUDY    34  28  79 NE12      30.20R WCI  25
KEARNEY *      MOCLDY    30  27  86 N13       30.21S WCI  20
YORK           MOCLDY    32  32 100 N15       30.22R WCI  22
$$

NEZ011>018-030>034-042>045-270500-
NORTHEAST NEBRASKA

CITY           SKY/WX    TMP DP  RH WIND       PRES   REMARKS
NORFOLK        MOCLDY    32  29  88 NW7       30.22R WCI  26
ALBION         PTCLDY    32  28  83 N3        30.23R
BLAIR          PTCLDY    33  30  88 NW8       30.19S WCI  27
COLUMBUS *     CLEAR     32  25  74 N8        30.24R WCI  25
FREMONT        CLEAR     31  30  94 NW5       30.21S WCI  27
TEKAMAH        MOCLDY    34  30  85 NW15G25   30.21R WCI  24
WAYNE          CLOUDY    32  29  90 NW9       30.23R WCI  24
$$

NEZ050>053-065>068-078-088>093-270500-
SOUTHEAST NEBRASKA

CITY           SKY/WX    TMP DP  RH WIND       PRES   REMARKS
LINCOLN        PTCLDY    34  32  92 N12       30.23R WCI  25
OMAHA EPPLEY   PTCLDY    33  31  92 N7        30.21R WCI  27
BEATRICE       CLOUDY    34  32  93 NE6       30.20R WCI  29
FALLS CITY     CLOUDY    36  33  89 N9        30.18R WCI  29
NEBRASKA CITY  MOCLDY    33  33 100 N7        30.19R WCI  27
PLATTSMOUTH    PTCLDY    33  31  92 NW5       30.19S WCI  28
$$

NEZ044-045-051>053-067-270500-
OMAHA AREA

CITY           SKY/WX    TMP DP  RH WIND       PRES   REMARKS
OMAHA EPPLEY   PTCLDY    33  31  92 N7        30.21R WCI  27
BLAIR          PTCLDY    33  30  88 NW8       30.19S WCI  27
FREMONT        CLEAR     31  30  94 NW5       30.21S WCI  27
MILLARD        FAIR      35  32  88 NW3       30.21R
OFFUTT AFB     MOCLDY    34  32  93 N5        30.20R WCI  30
PLATTSMOUTH    PTCLDY    33  31  92 NW5       30.19S WCI  28
WAHOO          FAIR      32  30  92 NW6       30.22R WCI  26
$$


USA.gov is the U.S. government's official web portal to all federal, state and local government web resources and services.